Location: Espelette
(43.3402°N, 1.4474°W)
Time: 21:16:18
(UTC+00:00)

ARIANE 6 FM1 Upper Stage - Pass Details

Date: 19 May 2025
Orbit: 531 x 610 km, 62.0° (Epoch: 18 June)

Event Time Altitude Azimuth Distance (km) Brightness Sun altitude
Rises 20:15:25 0° 207° (SSW) 2,661 6.0 -8.1°
Reaches altitude 10° 20:17:37 10° 203° (SSW) 1,772 5.1 -8.4°
Maximum altitude 20:21:31 57° 125° (SE) 629 2.6 -9.0°
Drops below altitude 10° 20:25:27 10° 46° (NE) 1,791 5.2 -9.5°
Sets 20:27:41 0° 42° (NE) 2,692 6.1 -9.8°
